Location: Hradec Kralove
(50.2170°N, 15.8330°E)
Time: 07:00:27
(UTC+02:00)

TIGRISAT - Pass Details

Date: 04 August 2024
Orbit: 591 x 667 km, 97.7° (Epoch: 19 September)

Event Time Altitude Azimuth Distance (km) Brightness Sun altitude
Rises 04:40:30 0° 169° (S) 2,960 ? -7.4°
Reaches altitude 10° 04:42:44 10° 171° (S) 2,043 ? -7.2°
Maximum altitude 04:47:12 74° 258° (WSW) 666 ? -6.6°
Drops below altitude 10° 04:51:34 10° 343° (NNW) 2,011 ? -6.0°
Sets 04:53:46 0° 345° (NNW) 2,909 ? -5.7°
